GW5730 Weather Reports


time (UTC)temp
F
wind
direction
speed
knots
gust
knots
rain 1hr
in
rain 24hr
in
rain mn
in
humidity
%
barometer
mb
20260503224436 70 230 2.6 0.0 0.00 0.00 0.00 39 1009.8
20260503222936 70 18 3.5 0.0 0.00 0.00 0.00 37 1009.8
20260503221436 70 156 0.0 0.0 0.00 0.00 0.00 36 1009.8
20260503215936 71 277 0.9 0.0 0.00 0.00 0.00 34 1009.8
20260503214436 71 236 7.0 0.0 0.00 0.00 0.00 33 1009.8
20260503212936 71 90 2.6 0.0 0.00 0.00 0.00 33 1009.8
20260503211436 71 259 4.3 0.0 0.00 0.00 0.00 33 1009.8
20260503205936 71 224 6.1 0.0 0.00 0.00 0.00 33 1010.3
20260503204436 70 347 0.9 0.0 0.00 0.00 0.00 35 1010.3
20260503202936 70 339 3.5 0.0 0.00 0.00 0.00 36 1010.3
20260503201436 69 304 1.7 0.0 0.00 0.00 0.00 40 1010.3
20260503195936 71 259 6.1 0.0 0.00 0.00 0.00 39 1011.4
20260503194436 70 267 3.5 0.0 0.00 0.00 0.00 38 1011.4
20260503192936 71 307 5.2 0.0 0.00 0.00 0.00 39 1011.4
20260503191453 69 26 4.3 0.0 0.00 0.00 0.00 39 1011.4
20260503185936 69 244 6.1 0.0 0.00 0.00 0.00 41 1012.2
20260503184436 70 327 3.5 0.0 0.00 0.00 0.00 41 1012.2
20260503182936 67 290 1.7 0.0 0.00 0.00 0.00 44 1012.2
20260503181436 69 1 2.6 0.0 0.00 0.00 0.00 44 1012.2
20260503175936 67 21 5.2 0.0 0.00 0.00 0.00 49 1012.7
20260503174436 67 245 9.6 0.0 0.00 0.00 0.00 49 1012.7
20260503172936 66 24 3.5 0.0 0.00 0.00 0.00 54 1012.7
20260503171453 66 31 3.5 0.0 0.00 0.00 0.00 55 1012.7
20260503081436 46 253 0.0 0.0 0.00 0.00 0.00 95 1010.5
20260503072936 48 253 0.9 0.0 0.00 0.00 0.00 96 1009.8
20260503071453 48 333 0.0 0.0 0.00 0.00 0.00 96 1009.8
20260503054436 51 323 0.9 0.0 0.00 0.00 0.81 95 1009.8
20260503052936 52 252 0.9 0.0 0.00 0.00 0.81 95 1009.8
20260503051436 51 189 1.7 0.0 0.00 0.00 0.81 95 1009.8
20260503045936 51 257 1.7 0.0 0.00 0.00 0.81 95 1009.4
20260503044436 51 343 0.9 0.0 0.00 0.00 0.81 95 1009.4
20260503042936 51 326 0.0 0.0 0.00 0.00 0.81 94 1009.4
20260503041436 51 354 3.5 0.0 0.00 0.00 0.81 95 1009.4
20260503035936 51 330 0.0 0.0 0.00 0.00 0.81 95 1008.5
20260503034436 51 213 0.9 0.0 0.00 0.00 0.81 95 1008.5
20260503032936 51 315 0.0 0.0 0.00 0.00 0.81 95 1008.5
20260503031436 51 19 0.9 0.0 0.00 0.00 0.81 94 1008.5
20260503025936 50 256 0.9 0.0 0.00 0.00 0.81 94 1007.8
20260503024436 50 0 0.0 0.0 0.00 0.00 0.81 94 1007.8
20260503022936 50 0 0.0 0.0 0.00 0.00 0.81 94 1007.8
20260503021453 50 0 0.0 0.0 0.00 0.00 0.81 94 1007.8
20260503015953 50 0 0.0 0.0 0.00 0.00 0.81 94 1007.5
20260503014453 50 280 0.0 0.0 0.00 0.00 0.81 93 1007.5
20260503012936 50 3 0.9 0.0 0.00 0.00 0.81 93 1007.5
20260503011436 51 254 0.0 0.0 0.00 0.00 0.81 93 1007.5
20260503005953 51 9 0.0 0.0 0.00 0.00 0.81 93 1006.1
20260503004436 52 47 1.7 0.0 0.00 0.00 0.81 92 1006.1
20260503002936 52 354 0.9 0.0 0.00 0.00 0.81 91 1006.1
20260503001436 53 0 1.7 0.0 0.00 0.00 0.81 90 1006.1
20260502235936 54 85 0.9 0.0 0.00 0.00 0.81 90 1005.5
20260502234453 54 60 6.1 0.0 0.00 0.00 0.81 90 1005.5
20260502232953 55 50 8.7 0.0 0.00 0.00 0.81 90 1005.5
20260502231436 55 56 3.5 0.0 0.00 0.00 0.81 91 1005.5
20260502225936 55 58 2.6 0.0 0.00 0.00 0.81 91 1005.4